TimeCST,TemperatureF,Dew PointF,Humidity,Sea Level PressureIn,VisibilityMPH,Wind Direction,Wind SpeedMPH,Gust SpeedMPH,PrecipitationIn,Events,Conditions,WindDirDegrees,DateUTC
12:15 AM,46.4,41.0,81,30.03,10.0,SE,5.8,-,N/A,,Clear,140,2012-11-10 06:15:00
12:35 AM,46.4,41.0,81,30.03,10.0,SE,6.9,-,N/A,,Clear,140,2012-11-10 06:35:00
12:55 AM,46.4,41.0,81,30.03,10.0,SE,5.8,-,N/A,,Clear,140,2012-11-10 06:55:00
1:15 AM,46.4,41.0,81,30.03,10.0,SSE,5.8,-,N/A,,Clear,150,2012-11-10 07:15:00
1:35 AM,46.4,41.0,81,30.03,10.0,SSE,4.6,-,N/A,,Clear,150,2012-11-10 07:35:00
1:55 AM,46.4,41.0,81,30.03,10.0,SE,5.8,-,N/A,,Clear,140,2012-11-10 07:55:00
2:15 AM,46.4,41.0,81,30.04,10.0,SSE,6.9,-,N/A,,Clear,150,2012-11-10 08:15:00
2:35 AM,46.4,42.8,87,30.04,10.0,SSE,6.9,-,N/A,,Clear,150,2012-11-10 08:35:00
4:15 AM,46.4,42.8,87,30.04,10.0,SSE,8.1,-,N/A,,Clear,160,2012-11-10 10:15:00
4:35 AM,46.4,42.8,87,30.04,10.0,SSE,8.1,-,N/A,,Clear,160,2012-11-10 10:35:00
4:55 AM,48.2,42.8,82,30.04,10.0,SSE,9.2,-,N/A,,Scattered Clouds,160,2012-11-10 10:55:00
5:15 AM,50.0,42.8,76,30.04,10.0,SSE,8.1,-,N/A,,Overcast,160,2012-11-10 11:15:00
5:35 AM,50.0,44.6,82,30.04,10.0,SSE,8.1,-,N/A,,Overcast,150,2012-11-10 11:35:00
5:55 AM,50.0,44.6,82,30.05,10.0,SSE,8.1,-,N/A,,Overcast,150,2012-11-10 11:55:00
6:35 AM,50.0,42.8,76,30.04,10.0,SSE,8.1,-,N/A,,Scattered Clouds,150,2012-11-10 12:35:00
6:55 AM,50.0,42.8,76,30.05,10.0,SSE,8.1,-,N/A,,Clear,160,2012-11-10 12:55:00
7:15 AM,50.0,44.6,82,30.04,10.0,SSE,9.2,-,N/A,,Clear,150,2012-11-10 13:15:00
7:35 AM,51.8,44.6,76,30.05,10.0,SSE,10.4,-,N/A,,Clear,160,2012-11-10 13:35:00
7:55 AM,51.8,44.6,76,30.04,10.0,SSE,9.2,-,N/A,,Clear,160,2012-11-10 13:55:00
8:15 AM,53.6,44.6,72,30.04,10.0,SSE,10.4,-,N/A,,Clear,160,2012-11-10 14:15:00
8:35 AM,55.4,44.6,67,30.05,10.0,SSE,10.4,-,N/A,,Mostly Cloudy,160,2012-11-10 14:35:00
8:55 AM,55.4,44.6,67,30.04,10.0,South,9.2,-,N/A,,Overcast,170,2012-11-10 14:55:00
9:15 AM,57.2,44.6,63,30.04,10.0,South,12.7,-,N/A,,Overcast,180,2012-11-10 15:15:00
9:35 AM,59.0,44.6,59,30.04,10.0,South,8.1,-,N/A,,Overcast,180,2012-11-10 15:35:00
9:55 AM,60.8,44.6,55,30.04,10.0,SSW,12.7,-,N/A,,Overcast,200,2012-11-10 15:55:00
10:15 AM,60.8,46.4,59,30.04,10.0,South,11.5,18.4,N/A,,Overcast,180,2012-11-10 16:15:00
10:35 AM,60.8,46.4,59,30.03,10.0,South,9.2,17.3,N/A,,Overcast,180,2012-11-10 16:35:00
10:55 AM,62.6,46.4,55,30.01,10.0,South,15.0,-,N/A,,Overcast,180,2012-11-10 16:55:00
11:15 AM,66.2,50.0,56,29.99,10.0,South,16.1,20.7,N/A,,Scattered Clouds,180,2012-11-10 17:15:00
11:35 AM,66.2,46.4,49,29.97,10.0,South,16.1,21.9,N/A,,Clear,170,2012-11-10 17:35:00
11:55 AM,68.0,48.2,49,29.97,10.0,South,15.0,25.3,N/A,,Clear,180,2012-11-10 17:55:00
12:15 PM,69.8,48.2,46,29.97,10.0,South,19.6,25.3,N/A,,Clear,180,2012-11-10 18:15:00
12:35 PM,69.8,48.2,46,29.97,10.0,South,15.0,26.5,N/A,,Clear,190,2012-11-10 18:35:00
12:55 PM,69.8,48.2,46,29.96,10.0,South,13.8,19.6,N/A,,Clear,170,2012-11-10 18:55:00
1:15 PM,69.8,48.2,46,29.97,10.0,South,17.3,23.0,N/A,,Clear,190,2012-11-10 19:15:00
1:35 PM,69.8,48.2,46,29.98,10.0,South,16.1,24.2,N/A,,Clear,190,2012-11-10 19:35:00
1:55 PM,69.8,48.2,46,29.98,10.0,SSW,13.8,24.2,N/A,,Clear,200,2012-11-10 19:55:00
2:15 PM,69.8,48.2,46,29.98,10.0,South,15.0,18.4,N/A,,Clear,170,2012-11-10 20:15:00
2:35 PM,68.0,48.2,49,29.97,10.0,South,13.8,21.9,N/A,,Clear,190,2012-11-10 20:35:00
2:55 PM,68.0,48.2,49,29.96,10.0,South,16.1,-,N/A,,Clear,170,2012-11-10 20:55:00
3:15 PM,69.8,46.4,43,29.96,10.0,SSE,12.7,19.6,N/A,,Clear,160,2012-11-10 21:15:00
3:35 PM,69.8,46.4,43,29.97,10.0,South,10.4,-,N/A,,Clear,170,2012-11-10 21:35:00
3:55 PM,68.0,46.4,46,29.97,10.0,South,13.8,19.6,N/A,,Clear,170,2012-11-10 21:55:00
4:15 PM,68.0,44.6,43,29.97,10.0,SSE,11.5,-,N/A,,Clear,160,2012-11-10 22:15:00
4:35 PM,66.2,44.6,46,29.97,10.0,SSE,13.8,18.4,N/A,,Clear,160,2012-11-10 22:35:00
4:55 PM,64.4,44.6,49,29.97,10.0,SSE,10.4,-,N/A,,Clear,150,2012-11-10 22:55:00
5:15 PM,64.4,44.6,49,29.98,10.0,SSE,11.5,-,N/A,,Clear,160,2012-11-10 23:15:00
5:35 PM,62.6,44.6,52,29.99,10.0,South,15.0,-,N/A,,Clear,170,2012-11-10 23:35:00
5:55 PM,62.6,44.6,52,29.99,10.0,SSE,15.0,-,N/A,,Clear,160,2012-11-10 23:55:00
6:15 PM,62.6,44.6,52,30.00,10.0,South,17.3,21.9,N/A,,Clear,170,2012-11-11 00:15:00
6:35 PM,62.6,44.6,52,30.00,10.0,South,16.1,-,N/A,,Clear,170,2012-11-11 00:35:00
6:55 PM,60.8,44.6,55,30.00,10.0,South,16.1,20.7,N/A,,Clear,170,2012-11-11 00:55:00
7:15 PM,60.8,44.6,55,30.00,10.0,South,15.0,-,N/A,,Clear,170,2012-11-11 01:15:00
7:35 PM,60.8,44.6,55,29.99,10.0,South,15.0,23.0,N/A,,Clear,170,2012-11-11 01:35:00
7:55 PM,60.8,44.6,55,29.99,10.0,South,15.0,23.0,N/A,,Clear,170,2012-11-11 01:55:00
8:15 PM,60.8,44.6,55,29.99,10.0,South,15.0,-,N/A,,Clear,170,2012-11-11 02:15:00
8:35 PM,60.8,44.6,55,30.00,10.0,South,11.5,-,N/A,,Clear,170,2012-11-11 02:35:00
8:55 PM,60.8,44.6,55,30.00,10.0,South,12.7,-,N/A,,Clear,180,2012-11-11 02:55:00
9:15 PM,60.8,46.4,59,30.01,10.0,South,16.1,20.7,N/A,,Clear,180,2012-11-11 03:15:00
9:35 PM,60.8,46.4,59,30.00,10.0,South,16.1,-,N/A,,Clear,180,2012-11-11 03:35:00
9:55 PM,62.6,46.4,55,30.00,10.0,South,15.0,23.0,N/A,,Clear,190,2012-11-11 03:55:00
10:15 PM,60.8,44.6,55,30.00,10.0,South,16.1,20.7,N/A,,Clear,180,2012-11-11 04:15:00
10:35 PM,60.8,44.6,55,30.00,10.0,South,13.8,19.6,N/A,,Clear,190,2012-11-11 04:35:00
10:55 PM,60.8,44.6,55,30.00,10.0,South,17.3,23.0,N/A,,Clear,190,2012-11-11 04:55:00
11:15 PM,60.8,44.6,55,30.00,10.0,South,15.0,20.7,N/A,,Clear,190,2012-11-11 05:15:00
11:35 PM,60.8,42.8,52,30.00,10.0,South,16.1,21.9,N/A,,Clear,180,2012-11-11 05:35:00
11:55 PM,60.8,42.8,52,30.00,10.0,South,13.8,21.9,N/A,,Clear,180,2012-11-11 05:55:00